Time,TemperatureF,DewpointF,PressureIn,WindDirection,WindDirectionDegrees,WindSpeedMPH,WindSpeedGustMPH,Humidity,HourlyPrecipIn,Conditions,Clouds,dailyrainin,SoftwareType,DateUTC
2013-09-17 00:01:00,74.0,64.4,29.94,East,90,2.0,12.0,72,0.00,,,0.00,Weather View 32 v70,2013-09-17 04:01:00,
2013-09-17 00:02:00,74.0,64.8,29.95,East,90,3.0,12.0,73,0.00,,,0.00,Weather View 32 v70,2013-09-17 04:02:00,
2013-09-17 00:07:00,74.0,64.4,29.94,ENE,68,3.0,14.0,72,0.00,,,0.00,Weather View 32 v70,2013-09-17 04:07:00,
2013-09-17 00:12:00,74.0,64.8,29.95,ENE,68,1.0,14.0,73,0.00,,,0.00,Weather View 32 v70,2013-09-17 04:12:00,
2013-09-17 00:17:00,74.0,64.4,29.95,North,0,1.0,14.0,72,0.00,,,0.00,Weather View 32 v70,2013-09-17 04:17:00,
2013-09-17 00:22:00,74.0,64.4,29.95,ENE,68,7.0,14.0,72,0.00,,,0.00,Weather View 32 v70,2013-09-17 04:22:00,
2013-09-17 00:27:00,73.0,63.8,29.95,ENE,68,11.0,14.0,73,0.00,,,0.00,Weather View 32 v70,2013-09-17 04:27:00,
2013-09-17 00:32:00,73.0,63.8,29.95,ENE,68,2.0,14.0,73,0.00,,,0.00,Weather View 32 v70,2013-09-17 04:32:00,
2013-09-17 00:37:00,73.0,63.8,29.95,ENE,68,3.0,14.0,73,0.00,,,0.00,Weather View 32 v70,2013-09-17 04:37:00,
2013-09-17 00:42:00,73.0,63.8,29.95,ENE,68,3.0,14.0,73,0.00,,,0.00,Weather View 32 v70,2013-09-17 04:42:00,
2013-09-17 00:47:00,73.0,63.8,29.95,ENE,68,5.0,14.0,73,0.00,,,0.00,Weather View 32 v70,2013-09-17 04:47:00,
2013-09-17 00:52:00,73.0,63.8,29.95,North,0,5.0,14.0,73,0.00,,,0.00,Weather View 32 v70,2013-09-17 04:52:00,
2013-09-17 00:57:00,73.0,63.8,29.96,ENE,68,11.0,14.0,73,0.00,,,0.00,Weather View 32 v70,2013-09-17 04:57:00,
2013-09-17 01:02:00,73.0,63.8,29.96,ENE,68,3.0,14.0,73,0.00,,,0.00,Weather View 32 v70,2013-09-17 05:02:00,
2013-09-17 01:07:00,73.0,63.8,29.96,ENE,68,5.0,14.0,73,0.00,,,0.00,Weather View 32 v70,2013-09-17 05:07:00,
2013-09-17 01:12:00,73.0,63.8,29.96,North,0,5.0,14.0,73,0.00,,,0.00,Weather View 32 v70,2013-09-17 05:12:00,
2013-09-17 01:17:00,73.0,63.8,29.96,North,0,3.0,14.0,73,0.00,,,0.00,Weather View 32 v70,2013-09-17 05:17:00,
2013-09-17 01:22:00,73.0,63.8,29.96,ENE,68,6.0,14.0,73,0.00,,,0.00,Weather View 32 v70,2013-09-17 05:22:00,
2013-09-17 01:24:00,72.0,62.8,29.96,ENE,68,5.0,14.0,73,0.00,,,0.00,Weather View 32 v70,2013-09-17 05:24:00,
2013-09-17 01:25:00,72.0,62.8,29.96,East,90,8.0,14.0,73,0.00,,,0.00,Weather View 32 v70,2013-09-17 05:25:00,
2013-09-17 01:26:00,72.0,62.8,29.96,ENE,68,2.0,14.0,73,0.00,,,0.00,Weather View 32 v70,2013-09-17 05:26:00,
2013-09-17 01:27:00,72.0,62.8,29.96,ENE,68,6.0,14.0,73,0.00,,,0.00,Weather View 32 v70,2013-09-17 05:27:00,
2013-09-17 01:28:00,72.0,62.8,29.96,ENE,68,2.0,14.0,73,0.00,,,0.00,Weather View 32 v70,2013-09-17 05:28:00,
2013-09-17 01:29:00,72.0,62.8,29.96,ENE,68,5.0,14.0,73,0.00,,,0.00,Weather View 32 v70,2013-09-17 05:29:00,
2013-09-17 01:30:00,72.0,62.8,29.97,ENE,68,6.0,14.0,73,0.00,,,0.00,Weather View 32 v70,2013-09-17 05:30:00,
2013-09-17 01:31:00,72.0,63.2,29.97,North,0,1.0,14.0,74,0.00,,,0.00,Weather View 32 v70,2013-09-17 05:31:00,
2013-09-17 01:35:00,72.0,63.2,29.97,ENE,68,1.0,14.0,74,0.00,,,0.00,Weather View 32 v70,2013-09-17 05:35:00,
2013-09-17 01:41:00,72.0,63.2,29.97,ENE,68,1.0,14.0,74,0.00,,,0.00,Weather View 32 v70,2013-09-17 05:41:00,
2013-09-17 01:46:00,72.0,63.6,29.97,ENE,68,1.0,13.0,75,0.00,,,0.00,Weather View 32 v70,2013-09-17 05:46:00,
2013-09-17 01:51:00,72.0,64.0,29.97,ENE,68,6.0,13.0,76,0.00,,,0.00,Weather View 32 v70,2013-09-17 05:51:00,
2013-09-17 01:56:00,72.0,64.0,29.97,ENE,68,0.0,13.0,76,0.00,,,0.00,Weather View 32 v70,2013-09-17 05:56:00,
2013-09-17 02:01:00,72.0,64.4,29.97,SSE,158,2.0,13.0,77,0.00,,,0.00,Weather View 32 v70,2013-09-17 06:01:00,
2013-09-17 02:06:00,71.0,63.8,29.97,East,90,3.0,13.0,78,0.00,,,0.00,Weather View 32 v70,2013-09-17 06:06:00,
2013-09-17 02:11:00,71.0,63.8,29.97,ENE,68,1.0,13.0,78,0.00,,,0.00,Weather View 32 v70,2013-09-17 06:11:00,
2013-09-17 02:16:00,71.0,63.8,29.97,ENE,68,2.0,11.0,78,0.00,,,0.00,Weather View 32 v70,2013-09-17 06:16:00,
2013-09-17 02:21:00,71.0,63.8,29.97,ENE,68,4.0,11.0,78,0.00,,,0.00,Weather View 32 v70,2013-09-17 06:21:00,
2013-09-17 02:26:00,71.0,63.8,29.97,North,0,5.0,11.0,78,0.00,,,0.00,Weather View 32 v70,2013-09-17 06:26:00,
2013-09-17 02:31:00,71.0,63.8,29.97,East,90,6.0,11.0,78,0.00,,,0.00,Weather View 32 v70,2013-09-17 06:31:00,
2013-09-17 02:36:00,71.0,63.8,29.97,ENE,68,1.0,13.0,78,0.00,,,0.00,Weather View 32 v70,2013-09-17 06:36:00,
2013-09-17 02:41:00,70.0,62.4,29.98,East,90,3.0,13.0,77,0.00,,,0.00,Weather View 32 v70,2013-09-17 06:41:00,
2013-09-17 02:46:00,70.0,62.8,29.97,ENE,68,8.0,13.0,78,0.00,,,0.00,Weather View 32 v70,2013-09-17 06:46:00,
2013-09-17 02:51:00,70.0,62.8,29.98,ENE,68,4.0,13.0,78,0.00,,,0.00,Weather View 32 v70,2013-09-17 06:51:00,
2013-09-17 02:56:00,70.0,62.4,29.98,ENE,68,5.0,13.0,77,0.00,,,0.00,Weather View 32 v70,2013-09-17 06:56:00,
2013-09-17 03:01:00,70.0,62.4,29.98,NNW,338,2.0,13.0,77,0.00,,,0.00,Weather View 32 v70,2013-09-17 07:01:00,
2013-09-17 03:06:00,70.0,62.4,29.98,North,0,5.0,13.0,77,0.00,,,0.00,Weather View 32 v70,2013-09-17 07:06:00,
2013-09-17 03:11:00,70.0,62.4,29.98,East,90,4.0,13.0,77,0.00,,,0.00,Weather View 32 v70,2013-09-17 07:11:00,
2013-09-17 03:16:00,69.0,61.1,29.98,ENE,68,3.0,13.0,76,0.00,,,0.00,Weather View 32 v70,2013-09-17 07:16:00,
2013-09-17 03:21:00,69.0,61.1,29.98,ENE,68,3.0,13.0,76,0.00,,,0.00,Weather View 32 v70,2013-09-17 07:21:00,
2013-09-17 03:26:00,69.0,60.3,29.98,ENE,68,2.0,13.0,74,0.00,,,0.00,Weather View 32 v70,2013-09-17 07:26:00,
2013-09-17 03:31:00,69.0,60.0,29.98,ENE,68,2.0,13.0,73,0.00,,,0.00,Weather View 32 v70,2013-09-17 07:31:00,
2013-09-17 03:36:00,69.0,60.0,29.99,East,90,8.0,13.0,73,0.00,,,0.00,Weather View 32 v70,2013-09-17 07:36:00,
2013-09-17 03:41:00,69.0,59.6,29.99,East,90,6.0,13.0,72,0.00,,,0.00,Weather View 32 v70,2013-09-17 07:41:00,
2013-09-17 03:46:00,69.0,59.6,29.99,North,0,2.0,13.0,72,0.00,,,0.00,Weather View 32 v70,2013-09-17 07:46:00,
2013-09-17 03:51:00,68.0,58.2,29.99,ENE,68,3.0,13.0,71,0.00,,,0.00,Weather View 32 v70,2013-09-17 07:51:00,
2013-09-17 03:56:00,69.0,59.2,29.99,ENE,68,3.0,13.0,71,0.00,,,0.00,Weather View 32 v70,2013-09-17 07:56:00,
2013-09-17 04:01:00,68.0,58.2,29.99,ENE,68,3.0,13.0,71,0.00,,,0.00,Weather View 32 v70,2013-09-17 08:01:00,
2013-09-17 04:06:00,68.0,57.8,29.99,ENE,68,8.0,13.0,70,0.00,,,0.00,Weather View 32 v70,2013-09-17 08:06:00,
2013-09-17 04:11:00,68.0,57.4,29.99,ENE,68,8.0,13.0,69,0.00,,,0.00,Weather View 32 v70,2013-09-17 08:11:00,
2013-09-17 04:17:00,68.0,57.4,29.99,North,0,1.0,14.0,69,0.00,,,0.00,Weather View 32 v70,2013-09-17 08:17:00,
2013-09-17 04:22:00,68.0,57.4,29.99,ENE,68,6.0,14.0,69,0.00,,,0.00,Weather View 32 v70,2013-09-17 08:22:00,
2013-09-17 04:27:00,68.0,57.8,29.99,ENE,68,3.0,14.0,70,0.00,,,0.00,Weather View 32 v70,2013-09-17 08:27:00,
2013-09-17 04:32:00,68.0,57.8,29.99,ENE,68,5.0,14.0,70,0.00,,,0.00,Weather View 32 v70,2013-09-17 08:32:00,
2013-09-17 04:37:00,68.0,57.8,29.99,ENE,68,10.0,14.0,70,0.00,,,0.00,Weather View 32 v70,2013-09-17 08:37:00,
2013-09-17 04:42:00,68.0,57.4,30.00,North,0,3.0,14.0,69,0.00,,,0.00,Weather View 32 v70,2013-09-17 08:42:00,
2013-09-17 04:47:00,68.0,57.4,30.00,NNW,338,3.0,14.0,69,0.00,,,0.00,Weather View 32 v70,2013-09-17 08:47:00,
2013-09-17 04:52:00,68.0,57.4,30.00,ENE,68,4.0,14.0,69,0.00,,,0.00,Weather View 32 v70,2013-09-17 08:52:00,
2013-09-17 04:57:00,67.0,56.5,30.00,East,90,3.0,14.0,69,0.00,,,0.00,Weather View 32 v70,2013-09-17 08:57:00,
2013-09-17 05:02:00,67.0,56.5,30.00,East,90,5.0,14.0,69,0.00,,,0.00,Weather View 32 v70,2013-09-17 09:02:00,
2013-09-17 05:07:00,67.0,56.5,30.00,ENE,68,3.0,14.0,69,0.00,,,0.00,Weather View 32 v70,2013-09-17 09:07:00,
2013-09-17 05:12:00,67.0,56.5,30.00,ENE,68,3.0,14.0,69,0.00,,,0.00,Weather View 32 v70,2013-09-17 09:12:00,
2013-09-17 05:17:00,67.0,56.9,30.00,ENE,68,2.0,14.0,70,0.00,,,0.00,Weather View 32 v70,2013-09-17 09:17:00,
2013-09-17 05:22:00,67.0,56.9,30.00,North,0,5.0,14.0,70,0.00,,,0.00,Weather View 32 v70,2013-09-17 09:22:00,
2013-09-17 05:27:00,67.0,56.9,30.00,ENE,68,5.0,14.0,70,0.00,,,0.00,Weather View 32 v70,2013-09-17 09:27:00,
2013-09-17 05:32:00,67.0,56.9,30.00,North,0,3.0,14.0,70,0.00,,,0.00,Weather View 32 v70,2013-09-17 09:32:00,
2013-09-17 05:37:00,66.0,55.9,30.00,ENE,68,2.0,14.0,70,0.00,,,0.00,Weather View 32 v70,2013-09-17 09:37:00,
2013-09-17 05:42:00,66.0,56.3,30.00,North,0,5.0,14.0,71,0.00,,,0.00,Weather View 32 v70,2013-09-17 09:42:00,
2013-09-17 05:47:00,66.0,56.3,30.00,North,0,1.0,14.0,71,0.00,,,0.00,Weather View 32 v70,2013-09-17 09:47:00,
2013-09-17 05:52:00,66.0,56.7,30.00,ENE,68,4.0,14.0,72,0.00,,,0.00,Weather View 32 v70,2013-09-17 09:52:00,
2013-09-17 05:57:00,66.0,57.1,30.01,North,0,2.0,14.0,73,0.00,,,0.00,Weather View 32 v70,2013-09-17 09:57:00,
2013-09-17 06:02:00,66.0,57.1,30.01,ENE,68,1.0,14.0,73,0.00,,,0.00,Weather View 32 v70,2013-09-17 10:02:00,
2013-09-17 06:07:00,66.0,57.4,30.01,ENE,68,1.0,12.0,74,0.00,,,0.00,Weather View 32 v70,2013-09-17 10:07:00,
2013-09-17 06:12:00,65.0,56.5,30.01,ENE,68,1.0,12.0,74,0.00,,,0.00,Weather View 32 v70,2013-09-17 10:12:00,
2013-09-17 06:17:00,65.0,56.5,30.01,ENE,68,6.0,12.0,74,0.00,,,0.00,Weather View 32 v70,2013-09-17 10:17:00,
2013-09-17 06:22:00,65.0,56.5,30.01,ENE,68,3.0,13.0,74,0.00,,,0.00,Weather View 32 v70,2013-09-17 10:22:00,
2013-09-17 06:27:00,65.0,56.5,30.01,East,90,8.0,13.0,74,0.00,,,0.00,Weather View 32 v70,2013-09-17 10:27:00,
2013-09-17 06:32:00,65.0,56.5,30.02,East,90,1.0,13.0,74,0.00,,,0.00,Weather View 32 v70,2013-09-17 10:32:00,
2013-09-17 06:37:00,65.0,56.5,30.02,North,0,1.0,13.0,74,0.00,,,0.00,Weather View 32 v70,2013-09-17 10:37:00,
2013-09-17 06:42:00,65.0,56.9,30.02,NNW,338,5.0,13.0,75,0.00,,,0.00,Weather View 32 v70,2013-09-17 10:42:00,
2013-09-17 06:47:00,65.0,57.2,30.03,SSE,158,3.0,13.0,76,0.00,,,0.00,Weather View 32 v70,2013-09-17 10:47:00,
2013-09-17 06:52:00,65.0,56.9,30.03,ENE,68,3.0,13.0,75,0.00,,,0.00,Weather View 32 v70,2013-09-17 10:52:00,
2013-09-17 06:57:00,65.0,56.9,30.03,ENE,68,3.0,13.0,75,0.00,,,0.00,Weather View 32 v70,2013-09-17 10:57:00,
2013-09-17 07:02:00,65.0,56.9,30.03,ENE,68,3.0,13.0,75,0.00,,,0.00,Weather View 32 v70,2013-09-17 11:02:00,
2013-09-17 07:07:00,65.0,56.9,30.03,ENE,68,3.0,13.0,75,0.00,,,0.00,Weather View 32 v70,2013-09-17 11:07:00,
2013-09-17 07:12:00,65.0,57.2,30.04,North,0,2.0,13.0,76,0.00,,,0.00,Weather View 32 v70,2013-09-17 11:12:00,
2013-09-17 07:17:00,65.0,57.2,30.04,North,0,1.0,13.0,76,0.00,,,0.00,Weather View 32 v70,2013-09-17 11:17:00,
2013-09-17 07:22:00,65.0,57.2,30.04,ENE,68,4.0,13.0,76,0.00,,,0.00,Weather View 32 v70,2013-09-17 11:22:00,
2013-09-17 07:27:00,65.0,56.9,30.04,ENE,68,3.0,13.0,75,0.00,,,0.00,Weather View 32 v70,2013-09-17 11:27:00,
2013-09-17 07:32:00,65.0,56.9,30.04,ENE,68,3.0,13.0,75,0.00,,,0.00,Weather View 32 v70,2013-09-17 11:32:00,
2013-09-17 07:37:00,65.0,56.9,30.04,ENE,68,6.0,13.0,75,0.00,,,0.00,Weather View 32 v70,2013-09-17 11:37:00,
2013-09-17 07:42:00,65.0,56.9,30.04,ENE,68,3.0,13.0,75,0.00,,,0.00,Weather View 32 v70,2013-09-17 11:42:00,
2013-09-17 07:47:00,65.0,56.9,30.04,ENE,68,3.0,13.0,75,0.00,,,0.00,Weather View 32 v70,2013-09-17 11:47:00,
2013-09-17 07:52:00,65.0,56.9,30.04,ENE,68,3.0,13.0,75,0.00,,,0.00,Weather View 32 v70,2013-09-17 11:52:00,
2013-09-17 07:57:00,65.0,56.9,30.05,ENE,68,2.0,13.0,75,0.00,,,0.00,Weather View 32 v70,2013-09-17 11:57:00,
2013-09-17 08:02:00,65.0,56.9,30.05,ENE,68,5.0,13.0,75,0.00,,,0.00,Weather View 32 v70,2013-09-17 12:02:00,
2013-09-17 08:07:00,65.0,57.2,30.05,ENE,68,3.0,14.0,76,0.00,,,0.00,Weather View 32 v70,2013-09-17 12:07:00,
2013-09-17 08:12:00,65.0,56.9,30.05,ENE,68,5.0,14.0,75,0.00,,,0.00,Weather View 32 v70,2013-09-17 12:12:00,
2013-09-17 08:18:00,65.0,56.9,30.06,East,90,8.0,14.0,75,0.00,,,0.00,Weather View 32 v70,2013-09-17 12:18:00,
2013-09-17 08:22:00,65.0,57.2,30.05,East,90,5.0,14.0,76,0.00,,,0.00,Weather View 32 v70,2013-09-17 12:22:00,
2013-09-17 08:28:00,65.0,57.2,30.05,ENE,68,5.0,14.0,76,0.00,,,0.00,Weather View 32 v70,2013-09-17 12:28:00,
2013-09-17 08:33:00,65.0,56.9,30.06,ENE,68,8.0,14.0,75,0.00,,,0.00,Weather View 32 v70,2013-09-17 12:33:00,
2013-09-17 08:38:00,65.0,56.9,30.06,ENE,68,6.0,14.0,75,0.00,,,0.00,Weather View 32 v70,2013-09-17 12:38:00,
2013-09-17 08:43:00,65.0,56.9,30.06,East,90,3.0,14.0,75,0.00,,,0.00,Weather View 32 v70,2013-09-17 12:43:00,
2013-09-17 08:48:00,65.0,57.2,30.07,North,0,6.0,14.0,76,0.00,,,0.00,Weather View 32 v70,2013-09-17 12:48:00,
2013-09-17 08:53:00,65.0,57.2,30.07,North,0,2.0,14.0,76,0.00,,,0.00,Weather View 32 v70,2013-09-17 12:53:00,
2013-09-17 08:58:00,65.0,57.2,30.07,West,270,1.0,14.0,76,0.00,,,0.00,Weather View 32 v70,2013-09-17 12:58:00,
2013-09-17 09:03:00,65.0,57.2,30.07,ENE,68,2.0,14.0,76,0.00,,,0.00,Weather View 32 v70,2013-09-17 13:03:00,
2013-09-17 09:08:00,65.0,57.2,30.07,ENE,68,5.0,14.0,76,0.00,,,0.00,Weather View 32 v70,2013-09-17 13:08:00,
2013-09-17 09:13:00,65.0,56.9,30.07,ENE,68,4.0,14.0,75,0.00,,,0.00,Weather View 32 v70,2013-09-17 13:13:00,
2013-09-17 09:18:00,65.0,57.2,30.07,North,0,4.0,14.0,76,0.00,,,0.00,Weather View 32 v70,2013-09-17 13:18:00,
2013-09-17 09:23:00,65.0,57.2,30.07,NNW,338,3.0,14.0,76,0.00,,,0.00,Weather View 32 v70,2013-09-17 13:23:00,
2013-09-17 09:28:00,65.0,57.2,30.07,North,0,1.0,14.0,76,0.00,,,0.00,Weather View 32 v70,2013-09-17 13:28:00,
2013-09-17 09:33:00,66.0,58.2,30.07,ENE,68,4.0,14.0,76,0.00,,,0.00,Weather View 32 v70,2013-09-17 13:33:00,
2013-09-17 09:38:00,66.0,58.2,30.07,ENE,68,4.0,14.0,76,0.00,,,0.00,Weather View 32 v70,2013-09-17 13:38:00,
2013-09-17 09:43:00,66.0,58.2,30.07,ENE,68,4.0,14.0,76,0.00,,,0.00,Weather View 32 v70,2013-09-17 13:43:00,
2013-09-17 09:48:00,67.0,58.4,30.07,ENE,68,3.0,14.0,74,0.00,,,0.00,Weather View 32 v70,2013-09-17 13:48:00,
2013-09-17 09:53:00,67.0,58.0,30.07,ENE,68,5.0,14.0,73,0.00,,,0.00,Weather View 32 v70,2013-09-17 13:53:00,
2013-09-17 09:58:00,68.0,58.6,30.07,ENE,68,6.0,14.0,72,0.00,,,0.00,Weather View 32 v70,2013-09-17 13:58:00,
2013-09-17 10:03:00,67.0,57.3,30.07,ENE,68,10.0,16.0,71,0.00,,,0.00,Weather View 32 v70,2013-09-17 14:03:00,
2013-09-17 10:08:00,67.0,57.6,30.07,North,0,6.0,16.0,72,0.00,,,0.00,Weather View 32 v70,2013-09-17 14:08:00,
2013-09-17 10:13:00,67.0,57.6,30.08,East,90,5.0,16.0,72,0.00,,,0.00,Weather View 32 v70,2013-09-17 14:13:00,
2013-09-17 10:18:00,68.0,58.2,30.07,ENE,68,3.0,16.0,71,0.00,,,0.00,Weather View 32 v70,2013-09-17 14:18:00,
2013-09-17 10:23:00,69.0,58.4,30.07,ENE,68,2.0,16.0,69,0.00,,,0.00,Weather View 32 v70,2013-09-17 14:23:00,
2013-09-17 10:28:00,69.0,58.0,30.07,ENE,68,8.0,16.0,68,0.00,,,0.00,Weather View 32 v70,2013-09-17 14:28:00,
2013-09-17 10:33:00,70.0,58.5,30.07,East,90,13.0,16.0,67,0.00,,,0.00,Weather View 32 v70,2013-09-17 14:33:00,
2013-09-17 10:38:00,70.0,58.5,30.08,East,90,3.0,16.0,67,0.00,,,0.00,Weather View 32 v70,2013-09-17 14:38:00,
2013-09-17 10:43:00,70.0,57.7,30.08,SSE,158,5.0,16.0,65,0.00,,,0.00,Weather View 32 v70,2013-09-17 14:43:00,
2013-09-17 10:48:00,69.0,55.8,30.08,ENE,68,7.0,16.0,63,0.00,,,0.00,Weather View 32 v70,2013-09-17 14:48:00,
2013-09-17 10:53:00,70.0,57.2,30.08,East,90,6.0,16.0,64,0.00,,,0.00,Weather View 32 v70,2013-09-17 14:53:00,
2013-09-17 10:58:00,70.0,56.8,30.08,East,90,8.0,16.0,63,0.00,,,0.00,Weather View 32 v70,2013-09-17 14:58:00,
2013-09-17 11:03:00,70.0,56.8,30.08,East,90,7.0,16.0,63,0.00,,,0.00,Weather View 32 v70,2013-09-17 15:03:00,
2013-09-17 11:08:00,70.0,56.3,30.08,North,0,5.0,16.0,62,0.00,,,0.00,Weather View 32 v70,2013-09-17 15:08:00,
2013-09-17 11:13:00,70.0,56.8,30.08,ENE,68,2.0,16.0,63,0.00,,,0.00,Weather View 32 v70,2013-09-17 15:13:00,
2013-09-17 11:18:00,70.0,56.3,30.08,ENE,68,1.0,16.0,62,0.00,,,0.00,Weather View 32 v70,2013-09-17 15:18:00,
2013-09-17 11:23:00,71.0,57.7,30.08,East,90,5.0,16.0,63,0.00,,,0.00,Weather View 32 v70,2013-09-17 15:23:00,
2013-09-17 11:28:00,71.0,56.8,30.08,ENE,68,5.0,16.0,61,0.00,,,0.00,Weather View 32 v70,2013-09-17 15:28:00,
2013-09-17 11:33:00,71.0,56.8,30.08,South,180,3.0,16.0,61,0.00,,,0.00,Weather View 32 v70,2013-09-17 15:33:00,
2013-09-17 11:38:00,71.0,56.8,30.09,ENE,68,6.0,15.0,61,0.00,,,0.00,Weather View 32 v70,2013-09-17 15:38:00,
2013-09-17 11:43:00,71.0,56.8,30.09,SSE,158,6.0,15.0,61,0.00,,,0.00,Weather View 32 v70,2013-09-17 15:43:00,
2013-09-17 11:48:00,71.0,57.3,30.08,East,90,8.0,15.0,62,0.00,,,0.00,Weather View 32 v70,2013-09-17 15:48:00,
2013-09-17 11:53:00,71.0,56.8,30.08,East,90,6.0,14.0,61,0.00,,,0.00,Weather View 32 v70,2013-09-17 15:53:00,
2013-09-17 11:58:00,71.0,56.4,30.08,ENE,68,5.0,14.0,60,0.00,,,0.00,Weather View 32 v70,2013-09-17 15:58:00,
2013-09-17 12:03:00,71.0,56.8,30.08,SSE,158,0.0,14.0,61,0.00,,,0.00,Weather View 32 v70,2013-09-17 16:03:00,
2013-09-17 12:08:00,72.0,58.2,30.08,North,0,3.0,13.0,62,0.00,,,0.00,Weather View 32 v70,2013-09-17 16:08:00,
2013-09-17 12:13:00,72.0,57.3,30.08,East,90,3.0,13.0,60,0.00,,,0.00,Weather View 32 v70,2013-09-17 16:13:00,
2013-09-17 12:18:00,72.0,57.8,30.08,East,90,6.0,13.0,61,0.00,,,0.00,Weather View 32 v70,2013-09-17 16:18:00,
2013-09-17 12:23:00,72.0,57.3,30.08,ENE,68,1.0,13.0,60,0.00,,,0.00,Weather View 32 v70,2013-09-17 16:23:00,
2013-09-17 12:28:00,72.0,57.3,30.07,ENE,68,1.0,13.0,60,0.00,,,0.00,Weather View 32 v70,2013-09-17 16:28:00,
2013-09-17 12:33:00,72.0,57.3,30.07,SSE,158,2.0,12.0,60,0.00,,,0.00,Weather View 32 v70,2013-09-17 16:33:00,
2013-09-17 12:38:00,72.0,57.3,30.07,ENE,68,4.0,12.0,60,0.00,,,0.00,Weather View 32 v70,2013-09-17 16:38:00,
2013-09-17 12:43:00,73.0,57.8,30.07,East,90,1.0,12.0,59,0.00,,,0.00,Weather View 32 v70,2013-09-17 16:43:00,
2013-09-17 12:48:00,73.0,57.3,30.07,ENE,68,3.0,11.0,58,0.00,,,0.00,Weather View 32 v70,2013-09-17 16:48:00,
2013-09-17 12:53:00,73.0,55.8,30.07,NNW,338,4.0,13.0,55,0.00,,,0.00,Weather View 32 v70,2013-09-17 16:53:00,
2013-09-17 12:58:00,73.0,55.3,30.07,North,0,5.0,13.0,54,0.00,,,0.00,Weather View 32 v70,2013-09-17 16:58:00,
2013-09-17 13:03:00,74.0,56.2,30.06,East,90,5.0,13.0,54,0.00,,,0.00,Weather View 32 v70,2013-09-17 17:03:00,
2013-09-17 13:08:00,73.0,54.8,30.06,ENE,68,4.0,13.0,53,0.00,,,0.00,Weather View 32 v70,2013-09-17 17:08:00,
2013-09-17 13:13:00,73.0,55.8,30.06,East,90,3.0,14.0,55,0.00,,,0.00,Weather View 32 v70,2013-09-17 17:13:00,
2013-09-17 13:18:00,73.0,55.8,30.06,ENE,68,2.0,14.0,55,0.00,,,0.00,Weather View 32 v70,2013-09-17 17:18:00,
2013-09-17 13:23:00,73.0,55.8,30.06,East,90,5.0,14.0,55,0.00,,,0.00,Weather View 32 v70,2013-09-17 17:23:00,
2013-09-17 13:28:00,73.0,55.8,30.06,North,0,10.0,14.0,55,0.00,,,0.00,Weather View 32 v70,2013-09-17 17:28:00,
2013-09-17 13:33:00,73.0,56.3,30.06,ENE,68,4.0,14.0,56,0.00,,,0.00,Weather View 32 v70,2013-09-17 17:33:00,
2013-09-17 13:38:00,73.0,55.8,30.06,ENE,68,7.0,14.0,55,0.00,,,0.00,Weather View 32 v70,2013-09-17 17:38:00,
2013-09-17 13:43:00,73.0,56.3,30.05,North,0,2.0,14.0,56,0.00,,,0.00,Weather View 32 v70,2013-09-17 17:43:00,
2013-09-17 13:48:00,73.0,55.8,30.05,East,90,3.0,14.0,55,0.00,,,0.00,Weather View 32 v70,2013-09-17 17:48:00,
2013-09-17 13:53:00,74.0,57.3,30.04,ENE,68,6.0,14.0,56,0.00,,,0.00,Weather View 32 v70,2013-09-17 17:53:00,
2013-09-17 13:59:00,74.0,56.2,30.05,East,90,1.0,14.0,54,0.00,,,0.00,Weather View 32 v70,2013-09-17 17:59:00,
2013-09-17 14:04:00,73.0,54.8,30.04,North,0,2.0,14.0,53,0.00,,,0.00,Weather View 32 v70,2013-09-17 18:04:00,
2013-09-17 14:09:00,74.0,55.7,30.04,North,0,3.0,14.0,53,0.00,,,0.00,Weather View 32 v70,2013-09-17 18:09:00,
2013-09-17 14:14:00,75.0,57.7,30.04,East,90,2.0,11.0,55,0.00,,,0.00,Weather View 32 v70,2013-09-17 18:14:00,
2013-09-17 14:19:00,75.0,57.2,30.04,ENE,68,4.0,11.0,54,0.00,,,0.00,Weather View 32 v70,2013-09-17 18:19:00,
2013-09-17 14:24:00,75.0,57.2,30.04,East,90,6.0,11.0,54,0.00,,,0.00,Weather View 32 v70,2013-09-17 18:24:00,
2013-09-17 14:29:00,75.0,56.7,30.03,ENE,68,6.0,11.0,53,0.00,,,0.00,Weather View 32 v70,2013-09-17 18:29:00,
2013-09-17 14:34:00,74.0,55.7,30.03,East,90,3.0,11.0,53,0.00,,,0.00,Weather View 32 v70,2013-09-17 18:34:00,
2013-09-17 14:39:00,74.0,55.7,30.03,East,90,4.0,11.0,53,0.00,,,0.00,Weather View 32 v70,2013-09-17 18:39:00,
2013-09-17 14:44:00,74.0,56.2,30.03,ENE,68,2.0,11.0,54,0.00,,,0.00,Weather View 32 v70,2013-09-17 18:44:00,
2013-09-17 14:49:00,74.0,56.2,30.03,East,90,2.0,11.0,54,0.00,,,0.00,Weather View 32 v70,2013-09-17 18:49:00,
2013-09-17 14:54:00,75.0,57.2,30.03,ENE,68,1.0,10.0,54,0.00,,,0.00,Weather View 32 v70,2013-09-17 18:54:00,
2013-09-17 14:59:00,75.0,57.7,30.02,ENE,68,5.0,10.0,55,0.00,,,0.00,Weather View 32 v70,2013-09-17 18:59:00,
2013-09-17 15:04:00,75.0,57.2,30.02,ENE,68,5.0,10.0,54,0.00,,,0.00,Weather View 32 v70,2013-09-17 19:04:00,
2013-09-17 15:09:00,75.0,56.7,30.02,ENE,68,1.0,10.0,53,0.00,,,0.00,Weather View 32 v70,2013-09-17 19:09:00,
2013-09-17 15:14:00,75.0,57.2,30.02,SSE,158,5.0,10.0,54,0.00,,,0.00,Weather View 32 v70,2013-09-17 19:14:00,
2013-09-17 15:19:00,76.0,57.0,30.02,ENE,68,3.0,10.0,52,0.00,,,0.00,Weather View 32 v70,2013-09-17 19:19:00,
2013-09-17 15:24:00,76.0,56.5,30.01,SSE,158,5.0,11.0,51,0.00,,,0.00,Weather View 32 v70,2013-09-17 19:24:00,
2013-09-17 15:29:00,76.0,57.6,30.01,ENE,68,2.0,11.0,53,0.00,,,0.00,Weather View 32 v70,2013-09-17 19:29:00,
2013-09-17 15:34:00,75.0,56.1,30.01,East,90,4.0,11.0,52,0.00,,,0.00,Weather View 32 v70,2013-09-17 19:34:00,
2013-09-17 15:39:00,75.0,56.1,30.01,North,0,3.0,11.0,52,0.00,,,0.00,Weather View 32 v70,2013-09-17 19:39:00,
2013-09-17 15:44:00,76.0,57.0,30.00,SSE,158,6.0,11.0,52,0.00,,,0.00,Weather View 32 v70,2013-09-17 19:44:00,
2013-09-17 15:49:00,76.0,57.0,30.00,East,90,2.0,11.0,52,0.00,,,0.00,Weather View 32 v70,2013-09-17 19:49:00,
2013-09-17 15:54:00,76.0,57.0,30.00,ENE,68,3.0,11.0,52,0.00,,,0.00,Weather View 32 v70,2013-09-17 19:54:00,
2013-09-17 16:00:00,75.0,56.1,30.00,NNW,338,7.0,11.0,52,0.00,,,0.00,Weather View 32 v70,2013-09-17 20:00:00,
2013-09-17 16:05:00,75.0,55.6,30.00,East,90,5.0,11.0,51,0.00,,,0.00,Weather View 32 v70,2013-09-17 20:05:00,
2013-09-17 16:10:00,75.0,55.6,30.00,East,90,3.0,11.0,51,0.00,,,0.00,Weather View 32 v70,2013-09-17 20:10:00,
2013-09-17 16:15:00,75.0,55.6,30.00,North,0,6.0,13.0,51,0.00,,,0.00,Weather View 32 v70,2013-09-17 20:15:00,
2013-09-17 16:20:00,75.0,56.1,30.00,NNW,338,1.0,13.0,52,0.00,,,0.00,Weather View 32 v70,2013-09-17 20:20:00,
2013-09-17 16:25:00,75.0,55.0,30.00,North,0,3.0,13.0,50,0.00,,,0.00,Weather View 32 v70,2013-09-17 20:25:00,
2013-09-17 16:30:00,75.0,55.6,30.00,North,0,3.0,13.0,51,0.00,,,0.00,Weather View 32 v70,2013-09-17 20:30:00,
2013-09-17 16:35:00,75.0,55.6,30.00,North,0,2.0,13.0,51,0.00,,,0.00,Weather View 32 v70,2013-09-17 20:35:00,
2013-09-17 16:40:00,75.0,55.6,30.00,ENE,68,1.0,13.0,51,0.00,,,0.00,Weather View 32 v70,2013-09-17 20:40:00,
2013-09-17 16:45:00,75.0,55.6,29.99,North,0,4.0,13.0,51,0.00,,,0.00,Weather View 32 v70,2013-09-17 20:45:00,
2013-09-17 16:50:00,75.0,56.1,30.00,East,90,1.0,13.0,52,0.00,,,0.00,Weather View 32 v70,2013-09-17 20:50:00,
2013-09-17 22:22:00,68.0,54.9,30.03,ENE,68,1.0,7.0,63,0.00,,,0.00,Weather View 32 v70,2013-09-18 02:22:00,
2013-09-17 22:27:00,68.0,54.9,30.03,North,0,8.0,8.0,63,0.00,,,0.00,Weather View 32 v70,2013-09-18 02:27:00,
2013-09-17 22:32:00,68.0,54.9,30.03,ENE,68,3.0,8.0,63,0.00,,,0.00,Weather View 32 v70,2013-09-18 02:32:00,
2013-09-17 22:37:00,67.0,54.4,30.03,ENE,68,3.0,8.0,64,0.00,,,0.00,Weather View 32 v70,2013-09-18 02:37:00,
2013-09-17 22:43:00,67.0,54.4,30.03,East,90,6.0,9.0,64,0.00,,,0.00,Weather View 32 v70,2013-09-18 02:43:00,
2013-09-17 22:48:00,67.0,54.4,30.03,ENE,68,2.0,9.0,64,0.00,,,0.00,Weather View 32 v70,2013-09-18 02:48:00,
2013-09-17 22:53:00,67.0,54.8,30.03,ENE,68,1.0,9.0,65,0.00,,,0.00,Weather View 32 v70,2013-09-18 02:53:00,
2013-09-17 22:58:00,67.0,54.8,30.03,ENE,68,3.0,9.0,65,0.00,,,0.00,Weather View 32 v70,2013-09-18 02:58:00,
2013-09-17 23:03:00,66.0,53.9,30.03,ENE,68,4.0,9.0,65,0.00,,,0.00,Weather View 32 v70,2013-09-18 03:03:00,
2013-09-17 23:08:00,66.0,54.3,30.03,ENE,68,3.0,9.0,66,0.00,,,0.00,Weather View 32 v70,2013-09-18 03:08:00,
2013-09-17 23:13:00,66.0,54.3,30.03,ENE,68,0.0,9.0,66,0.00,,,0.00,Weather View 32 v70,2013-09-18 03:13:00,
2013-09-17 23:18:00,66.0,54.7,30.03,ENE,68,1.0,9.0,67,0.00,,,0.00,Weather View 32 v70,2013-09-18 03:18:00,
2013-09-17 23:23:00,66.0,54.7,30.03,ENE,68,1.0,9.0,67,0.00,,,0.00,Weather View 32 v70,2013-09-18 03:23:00,
2013-09-17 23:28:00,66.0,55.1,30.03,ENE,68,1.0,9.0,68,0.00,,,0.00,Weather View 32 v70,2013-09-18 03:28:00,
2013-09-17 23:33:00,65.0,54.6,30.03,East,90,2.0,9.0,69,0.00,,,0.00,Weather View 32 v70,2013-09-18 03:33:00,
2013-09-17 23:38:00,65.0,54.6,30.03,ENE,68,1.0,9.0,69,0.00,,,0.00,Weather View 32 v70,2013-09-18 03:38:00,
2013-09-17 23:43:00,65.0,54.6,30.03,ENE,68,0.0,9.0,69,0.00,,,0.00,Weather View 32 v70,2013-09-18 03:43:00,
2013-09-17 23:48:00,65.0,54.9,30.03,ENE,68,2.0,6.0,70,0.00,,,0.00,Weather View 32 v70,2013-09-18 03:48:00,
2013-09-17 23:53:00,65.0,54.9,30.04,ENE,68,0.0,6.0,70,0.00,,,0.00,Weather View 32 v70,2013-09-18 03:53:00,
2013-09-17 23:58:00,64.0,54.4,30.03,ENE,68,1.0,6.0,71,0.00,,,0.00,Weather View 32 v70,2013-09-18 03:58:00,